Regional Weather Roundup
Issued by NWS Cleveland, OH

Home | Current Version | Previous Version | Graphics & Text | Print | Product List | Glossary On
Versions: 1 2 3 4 5 6 7 8 9 10 11 12 13 14 15 16 17 18 19 20 21 22 23 24 25 26 27 28 29 30 31 32 33 34 35 36 37 38 39 40 41 42 43 44 45 46 47 48 49 50
000
ASUS41 KCLE 291110
RWRCLE
OHIO REGIONAL WEATHER ROUNDUP
NATIONAL WEATHER SERVICE CLEVELAND, OH
700 AM EDT FRI JUL 29 2016

NOTE: "FAIR" INDICATES FEW OR NO CLOUDS BELOW 12,000 FEET WITH NO
SIGNIFICANT WEATHER AND/OR OBSTRUCTIONS TO VISIBILITY.

OHZ001>008-015>018-024>027-034-035-043-044-291200-
   NORTHWEST OHIO

CITY           SKY/WX    TMP DP  RH WIND       PRES   REMARKS
DEFIANCE       CLEAR     70  60  70 NE3       29.94R
FINDLAY        CLEAR     67  62  84 E3        29.92R HAZE
TOLEDO EXPRESS CLOUDY    67  61  81 N3        29.93R
TOLEDO EXEC    CLOUDY    71  64  78 N3        29.94R
LIMA           CLEAR     67  65  93 SE6       29.93R
$$

OHZ009>014-019>023-028>033-038-089-291200-
   NORTHEAST OHIO

CITY           SKY/WX    TMP DP  RH WIND       PRES   REMARKS
CLE-HOPKINS    PTCLDY    68  64  87 S5        29.94S FOG
CLE-LAKEFRONT  CLEAR     71  67  87 S9        29.90S FOG
CUY CO. ARPT   CLOUDY    72  72 100 SE7       29.92  VSB 1
LORAIN-ELYRIA  CLEAR     63  61  93 W3        29.94R FOG
ASHTABULA      CLEAR     65  65 100 SE3       29.95S FOG
AKRON-CANTON   FOG       69  67  93 S3        29.95R VSB 1
WOOSTER        FOG       66  66 100 CALM      29.96R VSB<1/4
MANSFIELD      CLEAR     63  63 100 S3        29.96R
YOUNGSTOWN     FOG       67  66  97 CALM      29.95R VSB 1/8
$$

OHZ042-051>053-060>062-070>072-077>081-291200-
  SOUTHWEST OHIO

CITY           SKY/WX    TMP DP  RH WIND       PRES   REMARKS
CINC-COVINGTON FOG       71  71 100 CALM      29.94R VSB 1/8
CINC-LUNKEN    PTCLDY    72  72 100 CALM      29.93R FOG
HAMILTON       CLEAR     67  65  93 CALM      29.93S FOG
DAYTON         PTCLDY    70  67  90 CALM      29.94R
WRIGHT-PAT AFB CLEAR     70  70 100 E2        29.93R
DAYTON GENERAL CLEAR     69  66  90 S5        29.93R
WILMINGTON     FOG       70  70 100 S3        29.94R VSB<1/4
$$

OHZ036-037-039>041-045>050-054>059-063>069-073>076-082>088-291200-
  CENTRAL AND SOUTHEAST OHIO

CITY           SKY/WX    TMP DP  RH WIND       PRES   REMARKS
COLUMBUS       CLEAR     68  67  96 SE3       29.93R FOG
OSU AIRPORT    FOG       67  67 100 CALM      29.93S VSB<1/4
BOLTON FIELD   CLOUDY    65  65 100 S3        29.95R VSB<1/4
RICKENBACK AFB FOG       67  67 100 CALM      29.94R VSB 1
NEWARK         FOG       70  69  97 S3        29.94R VSB 3/4
MARION         PTCLDY    65  64  97 E3        29.94S FOG
LANCASTER      CLOUDY    67  67 100 CALM      29.94R
ZANESVILLE     CLOUDY    74  70  87 CALM      29.95R
NEW PHILLY     CLOUDY    73  69  87 CALM      29.95R FOG
$$




USA.gov is the U.S. government's official web portal to all federal, state and local government web resources and services.